Regional & State Weather Roundups


060 
ASUS44 KLIX 111312
RWRLA 
LOUISIANA WEATHER ROUNDUP
NATIONAL WEATHER SERVICE NEW ORLEANS LA
700 AM CST MON DEC 11 2017
NOTE: "FAIR" INDICATES FEW OR NO CLOUDS BELOW 12,000 FEET WITH NO
      SIGNIFICANT WEATHER AND/OR OBSTRUCTIONS TO VISIBILITY.
      SKY/WX - SKY CONDITION AND SIGNIFICANT WEATHER.
      TMP - AIR TEMPERATURE.    DP   - DEWPOINT TEMPERATURE.
      RH  - RELATIVE HUMIDITY.  PRES - PRESSURE.
      HX  - HEAT INDEX.         WCI  - WIND CHILL INDEX.
*  THESE STATIONS ARE NOT NWS OR FAA STATIONS AND ARE NOT UNDER
   NWS QUALITY CONTROL.
LAZ040-048-061>063-065-066-069-111400-
SOUTHEAST LOUISIANA
  
CITY           SKY/WX    TMP DP  RH WIND       PRES   REMARKS
N.O. INTL ARPT PTCLDY    36  36 100 CALM      30.32R                  
N.O. LAKEFRONT CLEAR     46  41  82 SW6       30.32R                  
N.O. DOWNTOWN* FAIR      46  38  73 S5        30.33R                  
RESERVE*       FAIR      37  35  92 CALM      30.32S FOG              
SLIDELL        CLEAR     32  29  88 CALM      30.31R                  
BATON ROUGE    CLEAR     35  34  96 CALM      30.30S                  
BOOTHVILLE     CLEAR     45  39  79 NW3       30.33S                  
BELLE CHASSE   PTCLDY    32  32 100 SW3       30.32R                  
BOGALUSA*      NOT AVBL                                               
GALLIANO*      SUNNY     32  30  92 CALM      30.34R FOG              
NEW ROADS*     FAIR      32  31  98 CALM      30.31S                  
GONZALES*      FAIR      35  33  95 CALM      30.31S                  
HAMMOND*       CLEAR     32  32 100 CALM      30.31S                  
HOUMA*         CLEAR     34  34 100 CALM      30.33R                  
PORT FOURCHON* NOT AVBL                                               
$$
LAZ041-044-053-054-111400-
SOUTHWEST LOUISIANA
  
CITY           SKY/WX    TMP DP  RH WIND       PRES   REMARKS
LAKE CHARLES   CLEAR     39  38  96 W3        30.31S                  
LAFAYETTE      CLEAR     41  40  96 SW3       30.31S                  
PATTERSON      CLEAR     33  32  96 CALM      30.33R                  
SALT POINT       N/A     42  41  96 CALM      30.31S                  
NEW IBERIA     CLEAR     38  33  82 CALM      30.32R                  
CHENAULT AIRPK NOT AVBL                                               
$$
LAZ027-028-111400-
CENTRAL LOUISIANA
  
CITY           SKY/WX    TMP DP  RH WIND       PRES   REMARKS
FORT POLK      CLEAR     39  34  82 CALM      30.29R                  
ALEXANDRIA INT CLEAR     33  31  92 CALM      30.26S                  
ALEXANDRIA     CLEAR     32  31  96 W3        30.26S                  
$$
LAZ001-002-111400-
NORTHWEST LOUISIANA
  
CITY           SKY/WX    TMP DP  RH WIND       PRES   REMARKS
SHREVEPORT     PTCLDY    35  30  82 CALM      30.24R                  
BARKSDALE AFB  CLEAR     31  27  87 S5        30.24S WCI  26          
DTN SHREVEPORT CLEAR     38  31  76 CALM      30.25R                  
$$
LAZ014-016-111400-
NORTHEAST LOUISIANA
  
CITY           SKY/WX    TMP DP  RH WIND       PRES   REMARKS
MONROE         CLEAR     41  33  73 SW3       30.24F                  
TALLULAH       CLEAR     31  31 100 CALM      30.25F                  
$$